Fergus Falls, MN

1:40 AM CST on December 16, 2019 (GMT -0600)
Fergus Falls Municipal-Mickelson

Weather History for KFFM - October, 2019

Change the Weather History Date:

Friday, October 11, 2019

  Actual Average Record
Temperature  
Mean Temperature 32 °F -  
Max Temperature 33 °F 58 °F 91 °F (2015)
Min Temperature 30 °F 36 °F 24 °F (1967)
Degree Days  
Heating Degree Days 34    
Moisture  
Dew Point 30 °F    
Average Humidity 97    
Maximum Humidity 100    
Minimum Humidity 93    
Precipitation  
Precipitation 0.05 in - - ()
Sea Level Pressure  
Sea Level Pressure 29.62 in    
Wind  
Wind Speed 16 mph ()    
Max Wind Speed 28 mph    
Max Gust Speed 39 mph    
Visibility 2.1 miles    
Events Rain , Snow    
Averages and records for this station are not official NWS values.
T = Trace of Precipitation, MM = Missing Value Source: Averaged Metar Reports

Daily Weather History Graph

Daily Weather History Graph

Search for Another Location

Airport or City:

Astronomy

Oct. 11, 2019 Rise Set
Actual Time 7:36 AM CDT 6:45 PM CDT
Civil Twilight 7:06 AM CDT 7:15 PM CDT
Nautical Twilight 6:31 AM CDT 7:50 PM CDT
Astronomical Twilight 5:56 AM CDT 8:25 PM CDT
Moon 6:25 PM CDT (10/11) 5:05 AM CDT (10/11)
Length of Visible Light 12h 09m
Length of Day
11h 09m
Waxing Gibbous, 96% of the Moon is Illuminated
Oct 11
Waxing Gibbous
Oct 13
Full
Oct 21
Last Quarter
Oct 27
New
Nov 4
First Quarter

Hourly Weather History & Observations

Time (CDT) Temp. Windchill Dew Point Humidity Pressure Visibility Wind Dir Wind Speed Gust Speed Precip Events Conditions
12:15 AM 33.8 °F 23.5 °F 32.0 °F 93% 29.75 in 7.0 mi NW 16.1 mph 23.0 mph N/A   Overcast
12:16 AM 33.8 °F 23.9 °F 32.0 °F 93% 29.75 in 7.0 mi NW 15.0 mph 23.0 mph N/A   Overcast
12:35 AM 33.8 °F 23.5 °F 32.0 °F 93% 29.76 in 3.0 mi NW 16.1 mph 20.7 mph N/A   Overcast
12:40 AM 33.8 °F 25.3 °F 32.0 °F 93% 29.76 in 3.0 mi NW 11.5 mph 20.7 mph N/A   Overcast
12:57 AM 33.8 °F 24.8 °F 32.0 °F 93% 29.73 in 2.5 mi NW 12.7 mph 20.7 mph N/A   Overcast
1:15 AM 33.8 °F 23.2 °F 32.0 °F 93% 29.72 in 2.0 mi NW 17.3 mph 20.7 mph N/A   Overcast
1:35 AM 32.0 °F 21.6 °F 32.0 °F 100% 29.72 in 2.0 mi NW 15.0 mph 23.0 mph N/A   Overcast
1:36 AM 32.0 °F 22.5 °F 32.0 °F 100% 29.72 in 2.0 mi NW 12.7 mph 23.0 mph N/A   Overcast
1:55 AM 32.0 °F 23.0 °F 32.0 °F 100% 29.74 in 2.5 mi WNW 11.5 mph 19.6 mph N/A   Overcast
1:56 AM 32.0 °F 23.0 °F 32.0 °F 100% 29.74 in 2.5 mi WNW 11.5 mph 19.6 mph N/A   Overcast
2:19 AM 32.0 °F 22.1 °F 32.0 °F 100% 29.71 in 2.0 mi WNW 13.8 mph - N/A   Overcast
2:37 AM 32.0 °F 22.5 °F 32.0 °F 100% 29.70 in 1.8 mi NW 12.7 mph 21.9 mph N/A   Overcast
2:55 AM 32.0 °F 21.6 °F 32.0 °F 100% 29.69 in 1.8 mi WNW 15.0 mph - N/A   Overcast
2:56 AM 32.0 °F 21.2 °F 32.0 °F 100% 29.69 in 1.8 mi WNW 16.1 mph - N/A   Overcast
3:15 AM 32.0 °F 22.5 °F 32.0 °F 100% 29.70 in 1.8 mi WNW 12.7 mph 18.4 mph N/A   Overcast
3:35 AM 32.0 °F 22.5 °F 32.0 °F 100% 29.69 in 1.8 mi WNW 12.7 mph 18.4 mph N/A   Overcast
3:39 AM 32.0 °F 23.0 °F 32.0 °F 100% 29.69 in 1.8 mi WNW 11.5 mph 18.4 mph N/A Snow Light Snow
3:57 AM 32.0 °F 21.6 °F 32.0 °F 100% 29.67 in 2.0 mi WNW 15.0 mph - N/A   Overcast
4:15 AM 32.0 °F 22.5 °F 32.0 °F 100% 29.67 in 2.5 mi WNW 12.7 mph - N/A   Overcast
4:35 AM 32.0 °F 22.5 °F 32.0 °F 100% 29.67 in 2.0 mi WNW 12.7 mph - N/A   Overcast
4:36 AM 32.0 °F 22.1 °F 32.0 °F 100% 29.67 in 2.0 mi WNW 13.8 mph - N/A   Overcast
4:55 AM 32.0 °F 22.5 °F 32.0 °F 100% 29.68 in 1.8 mi West 12.7 mph - N/A   Overcast
4:56 AM 32.0 °F 22.1 °F 32.0 °F 100% 29.68 in 1.8 mi West 13.8 mph - N/A   Overcast
5:36 AM 30.2 °F 19.8 °F 30.2 °F 100% 29.67 in 2.5 mi West 13.8 mph 18.4 mph N/A   Overcast
5:55 AM 30.2 °F 19.3 °F 30.2 °F 100% 29.67 in 2.5 mi West 15.0 mph 20.7 mph N/A   Overcast
6:15 AM 30.2 °F 19.8 °F 30.2 °F 100% 29.66 in 3.0 mi WNW 13.8 mph - N/A   Overcast
6:16 AM 30.2 °F 19.3 °F 30.2 °F 100% 29.66 in 3.0 mi WNW 15.0 mph - N/A   Overcast
6:35 AM 30.2 °F 20.2 °F 30.2 °F 100% 29.65 in 2.5 mi West 12.7 mph - N/A Snow Light Snow
6:40 AM 30.2 °F 18.9 °F 30.2 °F 100% 29.65 in 2.5 mi West 16.1 mph - N/A Snow Light Snow
6:57 AM 30.2 °F 19.3 °F 30.2 °F 100% 29.65 in 2.5 mi West 15.0 mph 19.6 mph N/A Snow Light Snow
7:15 AM 30.2 °F 20.2 °F 30.2 °F 100% 29.66 in 2.5 mi West 12.7 mph - N/A   Overcast
7:35 AM 30.2 °F 20.2 °F 30.2 °F 100% 29.65 in 5.0 mi West 12.7 mph 19.6 mph N/A   Overcast
7:55 AM 30.2 °F 19.3 °F 30.2 °F 100% 29.64 in 5.0 mi West 15.0 mph - N/A   Overcast
7:56 AM 30.2 °F 19.8 °F 30.2 °F 100% 29.64 in 5.0 mi West 13.8 mph - N/A   Overcast
8:18 AM 30.2 °F 18.9 °F 30.2 °F 100% 29.64 in 2.5 mi West 16.1 mph 19.6 mph N/A   Overcast
8:37 AM 30.2 °F 20.2 °F 30.2 °F 100% 29.63 in 1.0 mi West 12.7 mph 18.4 mph N/A Snow Light Snow
8:56 AM 30.2 °F 20.8 °F 30.2 °F 100% 29.63 in 1.2 mi West 11.5 mph 19.6 mph N/A Snow Light Snow
9:15 AM 30.2 °F 18.9 °F 30.2 °F 100% 29.62 in 1.5 mi West 16.1 mph 19.6 mph N/A Snow Light Snow
9:35 AM 32.0 °F 21.2 °F 30.2 °F 93% 29.61 in 1.8 mi West 16.1 mph 20.7 mph 0.01 in   Overcast
9:39 AM 32.0 °F 21.2 °F 30.2 °F 93% 29.61 in 1.8 mi West 16.1 mph 20.7 mph 0.01 in   Overcast
9:58 AM 32.0 °F 21.6 °F 30.2 °F 93% 29.61 in 1.0 mi West 15.0 mph 20.7 mph N/A   Overcast
10:16 AM 32.0 °F 21.2 °F 30.2 °F 93% 29.61 in 1.0 mi West 16.1 mph 19.6 mph 0.01 in   Overcast
10:35 AM 30.2 °F 19.3 °F 30.2 °F 100% 29.60 in 0.8 mi West 15.0 mph 20.7 mph 0.01 in Rain Light Freezing Rain
10:36 AM 30.2 °F 19.8 °F 30.2 °F 100% 29.60 in 0.8 mi West 13.8 mph 20.7 mph N/A Rain Light Freezing Rain
10:55 AM 32.0 °F 20.5 °F 30.2 °F 93% 29.60 in 0.8 mi West 18.4 mph - 0.01 in Snow Light Snow
10:56 AM 30.2 °F 18.5 °F 30.2 °F 100% 29.60 in 0.8 mi West 17.3 mph - N/A Snow Light Snow
11:18 AM 30.2 °F 18.9 °F 30.2 °F 100% 29.59 in 0.8 mi West 16.1 mph 23.0 mph N/A Snow Light Snow
11:36 AM 30.2 °F 18.5 °F 30.2 °F 100% 29.59 in 0.8 mi West 17.3 mph 25.3 mph 0.01 in Snow Light Snow
11:55 AM 30.2 °F 17.8 °F 30.2 °F 100% 29.59 in 0.8 mi West 19.6 mph - 0.01 in Snow Light Snow
12:15 PM 30.2 °F 17.8 °F 30.2 °F 100% 29.59 in 0.5 mi West 19.6 mph 25.3 mph N/A Snow Light Snow
12:16 PM 30.2 °F 17.8 °F 30.2 °F 100% 29.59 in 0.5 mi West 19.6 mph 25.3 mph N/A Snow Light Snow
12:39 PM 30.2 °F 17.8 °F 30.2 °F 100% 29.59 in 0.5 mi West 19.6 mph 25.3 mph 0.01 in Snow Light Snow
12:56 PM 30.2 °F 16.5 °F 30.2 °F 100% 29.58 in 0.5 mi West 24.2 mph 31.1 mph N/A Snow Light Snow
1:16 PM 30.2 °F 17.4 °F 30.2 °F 100% 29.59 in 0.8 mi West 20.7 mph 32.2 mph N/A Snow Light Snow
1:35 PM 30.2 °F 17.8 °F 30.2 °F 100% 29.59 in 1.0 mi West 19.6 mph 28.8 mph N/A Snow Light Snow
1:36 PM 30.2 °F 16.5 °F 30.2 °F 100% 29.59 in 1.0 mi West 24.2 mph 29.9 mph N/A Snow Light Snow
1:55 PM 30.2 °F 16.2 °F 30.2 °F 100% 29.58 in 1.0 mi West 25.3 mph 36.8 mph N/A Snow Light Snow
1:59 PM 30.2 °F 16.5 °F 30.2 °F 100% 29.59 in 1.0 mi West 24.2 mph 35.7 mph N/A Snow Light Snow
2:17 PM 30.2 °F 16.5 °F 30.2 °F 100% 29.58 in 1.2 mi West 24.2 mph 31.1 mph N/A Snow Light Snow
2:36 PM 30.2 °F 16.2 °F 30.2 °F 100% 29.59 in 1.2 mi West 25.3 mph 33.4 mph N/A Snow Light Snow
2:55 PM 30.2 °F 16.8 °F 30.2 °F 100% 29.59 in 0.8 mi West 23.0 mph 29.9 mph N/A Snow Light Snow
3:15 PM 30.2 °F 16.2 °F 30.2 °F 100% 29.59 in 1.5 mi West 25.3 mph 34.5 mph N/A Snow Light Snow
3:20 PM 30.2 °F 15.7 °F 30.2 °F 100% 29.59 in 1.2 mi WNW 27.6 mph 32.2 mph N/A Snow Light Snow
3:37 PM 30.2 °F 15.7 °F 30.2 °F 100% 29.58 in 1.5 mi WNW 27.6 mph 34.5 mph N/A Snow Light Snow
3:55 PM 30.2 °F 16.8 °F 28.4 °F 93% 29.59 in 2.5 mi WNW 23.0 mph 34.5 mph N/A   Overcast
4:15 PM 30.2 °F 16.8 °F 28.4 °F 93% 29.59 in 2.5 mi WNW 23.0 mph 32.2 mph N/A Snow Light Snow
4:35 PM 30.2 °F 16.2 °F 28.4 °F 93% 29.59 in 2.5 mi WNW 25.3 mph 33.4 mph N/A Snow Light Snow
4:36 PM 30.2 °F 16.2 °F 28.4 °F 93% 29.59 in 3.0 mi WNW 25.3 mph 33.4 mph N/A Snow Light Snow
4:59 PM 30.2 °F 16.5 °F 28.4 °F 93% 29.60 in 3.0 mi West 24.2 mph 31.1 mph N/A Snow Light Snow
5:16 PM 30.2 °F 17.4 °F 28.4 °F 93% 29.60 in 1.2 mi West 20.7 mph 39.1 mph N/A Snow Light Snow
5:36 PM 30.2 °F 17.4 °F 28.4 °F 93% 29.60 in 2.0 mi West 20.7 mph 29.9 mph N/A Snow Light Snow
5:55 PM 30.2 °F 16.8 °F 28.4 °F 93% 29.60 in 1.8 mi West 23.0 mph 29.9 mph N/A Snow Light Snow
6:15 PM 30.2 °F 17.1 °F 28.4 °F 93% 29.60 in 1.2 mi West 21.9 mph 33.4 mph N/A Snow Light Snow
6:19 PM 30.2 °F 16.5 °F 28.4 °F 93% 29.60 in 1.5 mi West 24.2 mph 33.4 mph N/A Snow Light Snow
6:38 PM 30.2 °F 15.7 °F 28.4 °F 93% 29.60 in 1.8 mi West 27.6 mph 32.2 mph N/A Snow Light Snow
7:15 PM 30.2 °F 16.2 °F 28.4 °F 93% 29.59 in 1.8 mi West 25.3 mph 33.4 mph N/A Snow Light Snow
7:16 PM 30.2 °F 16.5 °F 28.4 °F 93% 29.60 in 1.5 mi West 24.2 mph 33.4 mph N/A Snow Light Snow
7:35 PM 30.2 °F 15.7 °F 28.4 °F 93% 29.59 in 1.5 mi West 27.6 mph 33.4 mph 0.01 in Snow Light Snow
7:58 PM 30.2 °F 16.8 °F 28.4 °F 93% 29.59 in 1.8 mi West 23.0 mph 32.2 mph N/A Snow Light Snow
8:16 PM 30.2 °F 15.7 °F 28.4 °F 93% 29.58 in 1.2 mi West 27.6 mph 33.4 mph N/A Snow Light Snow
8:35 PM 30.2 °F 15.9 °F 28.4 °F 93% 29.58 in 1.5 mi West 26.5 mph 36.8 mph N/A Snow Light Snow
8:55 PM 30.2 °F 16.2 °F 28.4 °F 93% 29.58 in 1.8 mi West 25.3 mph 39.1 mph N/A Snow Light Snow
8:56 PM 30.2 °F 16.5 °F 28.4 °F 93% 29.58 in 1.8 mi West 24.2 mph 39.1 mph N/A Snow Light Snow
9:15 PM 30.2 °F 16.5 °F 28.4 °F 93% 29.57 in 2.0 mi West 24.2 mph 31.1 mph N/A Snow Light Snow
9:20 PM 30.2 °F 15.7 °F 28.4 °F 93% 29.57 in 2.5 mi West 27.6 mph 32.2 mph N/A Snow Light Snow
9:37 PM 30.2 °F 17.1 °F 28.4 °F 93% - 7.0 mi West 21.9 mph 31.1 mph N/A   Overcast
9:55 PM 30.2 °F 16.5 °F 28.4 °F 93% 29.57 in 2.5 mi West 24.2 mph 33.4 mph N/A Snow Light Snow
10:15 PM 30.2 °F 15.9 °F 28.4 °F 93% 29.55 in 1.8 mi West 26.5 mph 31.1 mph N/A Snow Light Snow
10:35 PM 30.2 °F 16.5 °F 28.4 °F 93% 29.55 in 1.8 mi West 24.2 mph 32.2 mph N/A Snow Light Snow
10:36 PM 30.2 °F 15.9 °F 28.4 °F 93% 29.55 in 1.8 mi West 26.5 mph 32.2 mph N/A Snow Light Snow
10:59 PM 30.2 °F 16.5 °F 30.2 °F 100% 29.54 in 1.5 mi West 24.2 mph 36.8 mph N/A Snow Light Snow
11:16 PM 30.2 °F 15.9 °F 28.4 °F 93% 29.53 in 2.0 mi West 26.5 mph 35.7 mph N/A Snow Light Snow
11:36 PM 30.2 °F 16.2 °F 28.4 °F 93% 29.52 in 4.0 mi West 25.3 mph 35.7 mph N/A Rain Light Freezing Rain
11:55 PM 30.2 °F 16.5 °F 28.4 °F 93% 29.52 in 3.0 mi West 24.2 mph 32.2 mph N/A Snow Light Snow
11:56 PM 30.2 °F 16.2 °F 28.4 °F 93% 29.52 in 3.0 mi West 25.3 mph 31.1 mph N/A Snow Light Snow